カタログに戻る

STARLINK-6293

運用中通信VLEO
NORAD 57354·PAYLOAD·🇺🇸 United States

打ち上げ Jul 16, 2023 から Cape Canaveral Space Force Station

Loading…

次のパス (今後24時間)

TLE

最新Source: CelesTrak SupGP

元期: Sep 14, 2026, 20:41 UTC

1 57354C 23099AC  26257.86229167  .00022657  00000+0  82123-3 0  2577
2 57354  42.9990 253.3811 0001113 251.6323 344.6853 15.27543718    17

AllMySatでSTARLINK-6293をリアルタイム追跡

Download on the App Store